TimeAKST,TemperatureF,Dew PointF,Humidity,Sea Level PressureIn,VisibilityMPH,Wind Direction,Wind SpeedMPH,Gust SpeedMPH,PrecipitationIn,Events,Conditions,WindDirDegrees,DateUTC
12:16 AM,39.2,32.0,75,29.69,10.0,South,8.1,-,0.01,,Overcast,180,2014-02-28 09:16:00
12:36 AM,39.2,33.8,81,29.71,10.0,Calm,Calm,-,0.02,,Overcast,0,2014-02-28 09:36:00
12:56 AM,39.2,32.0,75,29.72,10.0,ENE,4.6,19.6,0.03,,Overcast,60,2014-02-28 09:56:00
1:16 AM,39.2,33.8,81,29.74,10.0,South,3.5,-,0.01,,Overcast,170,2014-02-28 10:16:00
1:36 AM,39.2,33.8,81,29.75,10.0,Calm,Calm,-,0.01,,Overcast,0,2014-02-28 10:36:00
1:56 AM,39.2,33.8,81,29.76,10.0,SE,5.8,-,0.02,,Overcast,130,2014-02-28 10:56:00
2:16 AM,39.2,33.8,81,29.78,10.0,WSW,3.5,21.9,0.01,,Overcast,240,2014-02-28 11:16:00
2:36 AM,39.2,33.8,81,29.79,10.0,Calm,Calm,-,0.01,,Overcast,0,2014-02-28 11:36:00
2:56 AM,39.2,32.0,75,29.80,10.0,South,10.4,19.6,0.01,,Overcast,170,2014-02-28 11:56:00
3:16 AM,39.2,30.2,70,29.81,10.0,South,4.6,26.5,N/A,,Overcast,180,2014-02-28 12:16:00
3:36 AM,39.2,32.0,75,29.83,10.0,ESE,5.8,17.3,N/A,,Overcast,110,2014-02-28 12:36:00
3:56 AM,39.2,32.0,75,29.83,10.0,South,8.1,18.4,N/A,,Overcast,180,2014-02-28 12:56:00
4:16 AM,39.2,33.8,81,29.84,10.0,SSE,3.5,-,N/A,,Overcast,150,2014-02-28 13:16:00
4:36 AM,39.2,32.0,75,29.84,10.0,South,4.6,-,N/A,,Overcast,180,2014-02-28 13:36:00
4:56 AM,39.2,32.0,75,29.85,10.0,South,3.5,24.2,N/A,,Overcast,170,2014-02-28 13:56:00
5:16 AM,39.2,30.2,70,29.86,10.0,South,4.6,-,N/A,,Overcast,190,2014-02-28 14:16:00
5:36 AM,39.2,30.2,70,29.87,10.0,Calm,Calm,-,N/A,,Mostly Cloudy,0,2014-02-28 14:36:00
5:56 AM,39.2,30.2,70,29.87,10.0,WSW,12.7,16.1,N/A,,Overcast,250,2014-02-28 14:56:00
6:16 AM,39.2,30.2,70,29.88,10.0,SSE,5.8,17.3,N/A,,Overcast,150,2014-02-28 15:16:00
6:36 AM,39.2,30.2,70,29.89,10.0,SW,6.9,-,N/A,,Overcast,220,2014-02-28 15:36:00
6:56 AM,39.2,30.2,70,29.90,10.0,South,3.5,-,N/A,,Overcast,180,2014-02-28 15:56:00
7:16 AM,39.2,28.4,65,29.90,10.0,South,4.6,-,N/A,,Overcast,170,2014-02-28 16:16:00
7:36 AM,39.2,28.4,65,29.91,10.0,SSE,3.5,-,N/A,,Overcast,150,2014-02-28 16:36:00
7:56 AM,39.2,30.2,70,29.91,10.0,ESE,6.9,-,N/A,,Overcast,110,2014-02-28 16:56:00
8:16 AM,39.2,32.0,75,29.92,10.0,ESE,8.1,-,N/A,,Overcast,120,2014-02-28 17:16:00
8:36 AM,39.2,30.2,70,29.92,10.0,South,6.9,-,N/A,,Overcast,170,2014-02-28 17:36:00
8:56 AM,39.2,30.2,70,29.93,10.0,ESE,5.8,-,N/A,,Overcast,110,2014-02-28 17:56:00
9:16 AM,39.2,30.2,70,29.94,10.0,ESE,4.6,17.3,N/A,,Overcast,120,2014-02-28 18:16:00
9:36 AM,39.2,32.0,75,29.94,10.0,SE,8.1,-,N/A,,Overcast,130,2014-02-28 18:36:00
9:56 AM,39.2,32.0,75,29.95,10.0,SE,10.4,16.1,N/A,,Overcast,130,2014-02-28 18:56:00
10:16 AM,39.2,33.8,81,29.95,10.0,ESE,10.4,-,N/A,,Overcast,120,2014-02-28 19:16:00
10:36 AM,39.2,32.0,75,29.96,10.0,ESE,10.4,-,N/A,,Overcast,120,2014-02-28 19:36:00
10:56 AM,39.2,33.8,81,29.97,10.0,SE,9.2,-,N/A,,Overcast,130,2014-02-28 19:56:00
11:16 AM,39.2,33.8,81,29.97,10.0,SE,9.2,17.3,N/A,,Mostly Cloudy,130,2014-02-28 20:16:00
11:36 AM,39.2,33.8,81,29.97,10.0,SE,10.4,17.3,N/A,,Overcast,140,2014-02-28 20:36:00
11:56 AM,39.2,33.8,81,29.98,10.0,SSE,11.5,18.4,N/A,,Scattered Clouds,150,2014-02-28 20:56:00
12:16 PM,39.2,33.8,81,29.98,10.0,SE,10.4,-,N/A,,Partly Cloudy,140,2014-02-28 21:16:00
12:36 PM,39.2,33.8,81,29.97,10.0,SE,8.1,-,N/A,,Clear,130,2014-02-28 21:36:00
12:56 PM,39.2,30.2,70,29.97,10.0,SE,8.1,-,N/A,,Clear,140,2014-02-28 21:56:00
1:16 PM,41.0,32.0,70,29.98,10.0,SSE,12.7,17.3,N/A,,Partly Cloudy,160,2014-02-28 22:16:00
1:36 PM,41.0,32.0,70,29.98,10.0,SSE,11.5,-,N/A,,Mostly Cloudy,160,2014-02-28 22:36:00
1:56 PM,41.0,30.2,65,29.98,10.0,SSE,11.5,16.1,N/A,,Scattered Clouds,150,2014-02-28 22:56:00
2:16 PM,39.2,32.0,75,29.98,10.0,ESE,9.2,-,N/A,,Mostly Cloudy,110,2014-02-28 23:16:00
2:36 PM,39.2,32.0,75,29.98,10.0,ESE,8.1,-,N/A,,Overcast,120,2014-02-28 23:36:00
2:56 PM,39.2,32.0,75,29.97,10.0,ESE,6.9,-,N/A,,Overcast,120,2014-02-28 23:56:00
3:16 PM,39.2,32.0,75,29.97,10.0,East,8.1,-,N/A,,Overcast,100,2014-03-01 00:16:00
3:36 PM,39.2,33.8,81,29.97,10.0,ENE,9.2,-,N/A,,Overcast,60,2014-03-01 00:36:00
3:56 PM,39.2,33.8,81,29.97,10.0,ENE,10.4,17.3,N/A,,Overcast,70,2014-03-01 00:56:00
4:16 PM,39.2,35.6,87,29.97,10.0,ENE,9.2,-,N/A,,Mostly Cloudy,70,2014-03-01 01:16:00
4:36 PM,39.2,35.6,87,29.96,10.0,NE,6.9,-,N/A,,Mostly Cloudy,50,2014-03-01 01:36:00
4:56 PM,39.2,35.6,87,29.95,10.0,East,9.2,-,N/A,,Overcast,80,2014-03-01 01:56:00
5:16 PM,39.2,35.6,87,29.95,10.0,ENE,9.2,-,N/A,,Overcast,60,2014-03-01 02:16:00
5:36 PM,37.4,35.6,93,29.95,10.0,ENE,9.2,-,N/A,,Mostly Cloudy,70,2014-03-01 02:36:00
5:56 PM,39.2,35.6,87,29.94,10.0,ENE,10.4,-,N/A,,Mostly Cloudy,70,2014-03-01 02:56:00
6:16 PM,37.4,33.8,87,29.94,10.0,East,10.4,-,N/A,,Overcast,80,2014-03-01 03:16:00
6:36 PM,37.4,33.8,87,29.94,10.0,East,8.1,-,N/A,,Overcast,80,2014-03-01 03:36:00
6:56 PM,37.4,33.8,87,29.94,10.0,East,6.9,-,N/A,,Overcast,80,2014-03-01 03:56:00
7:16 PM,37.4,33.8,87,29.94,10.0,ENE,8.1,-,N/A,,Overcast,70,2014-03-01 04:16:00
7:36 PM,37.4,33.8,87,29.94,10.0,East,9.2,-,N/A,,Overcast,80,2014-03-01 04:36:00
7:56 PM,37.4,32.0,81,29.94,10.0,East,4.6,-,N/A,,Overcast,90,2014-03-01 04:56:00
8:16 PM,37.4,32.0,81,29.94,10.0,East,6.9,-,N/A,,Overcast,90,2014-03-01 05:16:00
8:36 PM,37.4,33.8,87,29.93,10.0,ESE,9.2,17.3,N/A,,Overcast,110,2014-03-01 05:36:00
8:56 PM,37.4,33.8,87,29.93,10.0,East,5.8,-,N/A,,Mostly Cloudy,100,2014-03-01 05:56:00
9:16 PM,37.4,33.8,87,29.92,10.0,East,5.8,-,N/A,,Overcast,80,2014-03-01 06:16:00
9:36 PM,37.4,33.8,87,29.93,10.0,East,10.4,16.1,N/A,,Overcast,100,2014-03-01 06:36:00
9:56 PM,37.4,33.8,87,29.93,10.0,ESE,10.4,17.3,N/A,,Overcast,120,2014-03-01 06:56:00
10:16 PM,37.4,32.0,81,29.93,10.0,ESE,8.1,19.6,N/A,,Overcast,120,2014-03-01 07:16:00
10:36 PM,37.4,33.8,87,29.92,10.0,East,9.2,16.1,N/A,,Overcast,90,2014-03-01 07:36:00
10:56 PM,37.4,33.8,87,29.92,10.0,East,8.1,-,N/A,,Overcast,100,2014-03-01 07:56:00
11:16 PM,37.4,33.8,87,29.92,10.0,East,9.2,16.1,N/A,,Overcast,90,2014-03-01 08:16:00
11:36 PM,37.4,32.0,81,29.92,10.0,East,6.9,-,N/A,,Overcast,80,2014-03-01 08:36:00
11:56 PM,37.4,32.0,81,29.92,10.0,East,6.9,-,N/A,,Overcast,80,2014-03-01 08:56:00